Location: Allentsteig
(48.6833°N, 15.3167°E)
Time: 08:44:36
(UTC+00:00)

Cosmos 2298 Rocket - Pass Details

Date: 22 January 2021
Orbit: 775 x 784 km, 74.0° (Epoch: 24 February)

Event Time Altitude Azimuth Distance (km) Brightness Sun altitude
Exits shadow 02:41:05 - 17° (NNE) 2,431 6.9 -39.0°
Reaches altitude 10° 02:41:57 10° 26° (NNE) 2,353 6.9 -38.9°
Maximum altitude 02:42:54 10° 37° (NE) 2,322 7.0 -38.7°
Drops below altitude 10° 02:43:51 10° 47° (NE) 2,352 7.1 -38.6°
Sets 02:48:47 0° 87° (E) 3,275 8.2 -37.8°
